Starlink 31980

operational
NORAD ID: 59962 Int'l Des: 2024-107 Owner: SPXS Country: US Constellation: starlink
LEOCIRCULAR

About Starlink 31980

Description loading...

Live Position

Loading 3D Globe...

Upcoming Passes

Altitude History

Altitude vs Time

uPlot chart will show altitude changes over time

Two-Line Element Set

1 59962U 24107T 26093.56518851 -.00000663 00000-0 -10269-4 0 9993
2 59962 53.1585 310.0815 0001158 95.8735 264.2398 15.30197842103604
Epoch: Apr 3, 2026 • Age: 15 hours

Current Status

Altitude 477.5 km
Velocity 7.63 km/s
Sub-Earth Point 36.64°N, 162.61°W
Launch Date Jun 5, 2024
Age 1.8 years
Type internet

Technical Details

Classification Payload
Mass 730.00 kg
Dry Mass 700.00 kg
Total Mass 730.00 kg
Length 0.30 m
Diameter 4.10 m
Span 29.00 m
Shape Box + pan
Manufacturer SPXS
Bus Type Starlink V2M
Phase Status In Orbit
Owner/State SPXS/US

Large Constellations

Loading constellations...